This demonstration page uses our WeatherBlox Daily Observations layout. Learn more.

Left ArrowRight Arrow

36.17497, -115.13722

Hourly Observations for June 27, 2022

Temp ( °F °C ) Dew Point ( °F °C ) Humidity (%) Winds ( mph kmh ) Pressure ( in mb ) Visibility ( mi km ) Precip ( " mm )
12:53 am 00:53 Clear 92 33.3 52 11.1 26 26 SSE 13 20 29.98 1015 10 16 0.00 0.00
1:53 am 01:53 Clear 91 32.8 52 11.1 26 26 SE 8 13 29.98 1015 10 16 0.00 0.00
2:53 am 02:53 Clear 89 31.7 52 11.1 28 28 ESE 8 13 29.99 1016 10 16 0.00 0.00
3:53 am 03:53 Clear 88 31.1 52 11.1 29 29 S 5 7 30.00 1016 10 16 0.00 0.00
4:53 am 04:53 Clear 86 30 52 11.1 31 31 E 8 13 30.01 1016 10 16 0.00 0.00
5:53 am 05:53 Sunny 86 30 54 12.2 33 33 E 10 17 30.03 1017 10 16 0.00 0.00
6:53 am 06:53 Sunny 87 30.6 54 12.2 32 32 ESE 9 15 30.05 1018 10 16 0.00 0.00
7:53 am 07:53 Sunny 88 31.1 55 12.8 33 33 ESE 6 9 30.06 1018 10 16 0.00 0.00
8:53 am 08:53 Sunny 91 32.8 55 12.8 30 30 E 9 15 30.07 1018 10 16 0.00 0.00
9:53 am 09:53 Sunny 93 33.9 55 12.8 28 28 ESE 8 13 30.06 1018 10 16 0.00 0.00
10:53 am 10:53 Sunny 95 35 56 13.3 27 27 ENE 5 7 30.06 1018 10 16 0.00 0.00
11:53 am 11:53 Sunny 96 35.6 55 12.8 25 25 undefined N/A 30.04 1017 10 16 0.00 0.00
12:53 pm 12:53 Sunny 99 37.2 53 11.7 21 21 VRB 6 9 30.01 1016 10 16 0.00 0.00
1:53 pm 13:53 Sunny 101 38.3 54 12.2 21 21 undefined N/A 29.98 1015 10 16 0.00 0.00
2:53 pm 14:53 Sunny 103 39.4 48 8.9 16 16 VRB 6 9 29.96 1015 10 16 0.00 0.00
3:53 pm 15:53 Sunny 104 40 45 7.2 13 13 VRB 3 6 29.93 1014 10 16 0.00 0.00
4:53 pm 16:53 Sunny 106 41.1 40 4.4 10 10 VRB 3 6 29.91 1013 10 16 0.00 0.00
5:53 pm 17:53 Sunny 106 41.1 37 2.8 9 9 E 5 7 29.89 1012 10 16 0.00 0.00
6:53 pm 18:53 Sunny 105 40.6 37 2.8 10 10 E 5 7 29.89 1012 10 16 0.00 0.00
7:53 pm 19:53 Sunny 104 40 37 2.8 10 10 Calm 29.90 1013 10 16 0.00 0.00
8:53 pm 20:53 Clear 100 37.8 39 3.9 12 12 Calm 29.90 1013 10 16 0.00 0.00
9:53 pm 21:53 Clear 100 37.8 40 4.4 13 13 Calm 29.91 1013 10 16 0.00 0.00
10:53 pm 22:53 Clear 95 35 45 7.2 18 18 W 5 7 29.92 1013 10 16 0.00 0.00
11:53 pm 23:53 Clear 93 33.9 44 6.7 18 18 NNW 5 7 29.92 1013 10 16 0.00 0.00

Powered by AerisWeather